Theta_e
342 335 335 337 339 337 333 333 332 333 335 336 336 336 336 336 336 336 335 332 329 328 332 336 333 330 329 330 330 326 319 315 315 317 317 328 330 331 331 330 329 327 318
341 335 334 337 339 334 333 333 334 336 337 338 338 339 340 340 340 340 339 338 338 336 333 331 334 335 332 331 330 330 329 329 324 316 315 316 327 331 331 329 328 327 323
340 334 337 337 335 333 334 335 338 339 338 337 336 335 335 336 336 336 337 337 337 337 337 337 337 337 336 334 333 332 331 330 329 330 320 328 328 329 332 328 321 319 325
339 338 336 335 334 336 338 339 338 336 334 332 331 331 328 327 327 330 331 330 328 327 330 332 333 334 336 336 336 336 336 334 333 331 330 328 328 328 325 327 323 321 324
340 338 338 338 338 339 338 337 336 333 327 321 320 318 317 316 316 315 314 313 312 313 314 316 318 322 326 329 333 336 336 336 336 335 333 335 334 335 335 326 320 320 325
340 340 340 340 340 338 337 335 333 325 317 315 313 311 309 308 308 308 308 308 308 308 308 309 309 309 310 313 316 322 331 334 335 335 335 334 334 334 335 335 333 318 321
340 340 341 340 338 337 336 333 322 315 311 309 308 308 308 308 309 309 309 309 310 310 310 310 310 310 310 309 309 310 313 320 329 333 334 334 333 334 334 335 335 330 321
340 341 340 339 338 337 333 321 313 310 309 308 308 308 309 309 309 309 309 309 309 308 308 308 309 309 309 309 310 310 310 310 312 318 326 330 332 333 332 334 335 334 329
340 340 339 339 337 333 321 311 310 309 308 308 309 309 309 309 309 308 308 308 308 308 307 307 307 307 308 308 309 310 310 310 310 310 313 325 326 326 332 331 334 334 333
340 339 339 337 333 322 311 310 309 308 308 309 309 309 309 309 309 308 308 308 308 307 307 307 307 307 307 307 308 309 311 314 315 317 321 326 331 331 331 333 336 335 332
338 337 335 333 322 311 310 309 308 308 308 308 308 308 308 309 309 309 309 308 307 307 307 306 306 306 306 307 307 309 310 314 317 319 320 323 327 330 329 330 331 331 330
337 335 333 326 312 311 309 309 308 309 308 308 308 308 308 309 309 309 308 308 307 306 305 305 304 305 305 307 308 309 309 311 313 317 318 320 321 323 324 325 326 326 324
335 333 327 314 311 310 309 309 308 308 308 308 308 308 308 309 309 308 308 307 306 305 305 304 304 304 304 306 308 309 309 312 314 316 317 318 319 320 321 320 317 320 321
333 327 316 311 310 309 309 308 308 308 308 308 307 308 308 309 309 309 308 306 305 305 304 304 303 303 303 305 308 310 311 314 317 315 315 316 316 315 316 323 322 321 322
328 319 312 311 309 309 309 308 308 308 307 307 307 308 309 309 309 308 307 306 305 305 304 304 303 303 303 303 305 311 312 315 316 316 317 318 317 317 317 319 320 321 321
321 313 311 310 308 309 308 309 308 308 308 307 308 308 309 309 309 308 306 306 305 305 304 304 304 303 303 303 305 311 313 314 316 318 318 316 316 315 315 316 316 317 318
317 312 311 309 308 309 309 309 308 308 308 308 308 308 309 309 309 307 306 306 305 305 305 305 304 304 303 302 308 313 316 316 317 316 316 315 315 314 315 315 315 315 315
315 312 310 309 309 309 309 309 309 309 308 308 308 308 309 309 307 306 306 306 306 305 305 305 305 304 304 302 308 314 313 315 316 315 314 311 312 311 312 312 313 313 314
314 311 310 309 309 309 309 310 309 309 308 307 308 308 308 308 307 306 305 306 306 306 306 306 305 305 304 303 306 313 315 312 312 312 311 311 310 310 310 310 310 310 310
314 311 310 309 310 310 309 310 310 309 308 307 307 308 307 306 306 305 305 306 306 306 306 306 306 305 305 304 303 306 311 312 313 310 307 307 307 305 303 303 302 303 305
314 312 311 310 310 310 310 310 310 309 309 308 307 306 306 306 306 305 305 305 306 306 306 306 306 306 306 306 305 306 310 312 313 311 308 308 307 307 306 303 301 298 298
316 313 312 311 310 310 310 310 309 309 308 307 306 306 306 306 306 306 306 306 306 306 306 306 306 306 306 305 305 303 305 310 312 307 309 309 307 307 306 304 301 299 296
315 314 313 312 310 310 310 310 309 308 307 306 306 306 307 307 307 307 307 307 307 306 306 306 306 306 306 305 305 305 303 304 303 307 308 307 306 306 304 303 301 300 296
315 314 313 312 311 310 310 310 309 307 307 307 307 307 307 307 307 307 307 307 307 307 306 306 306 306 305 305 304 304 303 303 303 303 306 306 306 304 304 302 300 299 298
315 314 313 313 312 311 310 310 309 307 307 307 307 307 306 306 307 307 307 307 307 307 307 307 306 306 305 305 304 303 303 302 302 302 303 304 305 302 300 299 300 298 298
312 313 313 313 312 311 310 310 308 307 308 308 307 306 306 306 307 306 306 306 306 307 307 307 307 306 305 305 304 303 302 302 302 302 301 301 300 300 299 299 298 298 298
Wind_Speed
12 13 12 11 11 9 7 7 7 8 8 9 10 10 10 10 10 10 9 9 8 7 8 8 9 9 9 9 9 9 8 7 6 5 4 4 4 5 6 8 8 7 6
13 15 13 12 11 7 7 7 7 7 7 7 8 8 8 8 8 8 8 8 8 8 7 7 7 8 8 9 9 9 9 9 8 7 7 4 3 5 6 9 9 7 5
13 16 15 12 9 8 8 7 7 6 5 4 3 3 3 4 5 5 6 7 7 8 8 9 9 9 9 9 9 9 9 9 8 7 6 3 6 5 5 10 9 7 4
14 15 14 12 11 9 8 7 5 3 2 3 4 5 6 7 7 7 8 8 8 8 8 8 9 10 10 10 11 10 10 10 9 7 6 3 7 10 10 12 10 7 4
13 15 15 13 11 9 7 5 3 2 3 4 5 6 6 7 7 8 8 9 9 9 9 9 10 10 11 12 11 10 10 11 11 8 6 6 7 11 14 12 11 9 7
17 14 14 13 11 8 6 3 1 2 4 4 5 6 7 7 8 9 9 9 10 10 11 11 11 12 12 13 13 13 13 13 13 11 8 7 4 11 14 12 13 12 10
19 15 14 12 9 7 4 2 1 2 4 5 6 6 7 8 8 9 10 10 10 11 11 11 12 12 13 13 14 14 15 15 15 14 12 8 9 12 14 17 16 14 12
17 16 14 11 8 5 3 1 1 3 4 5 6 7 8 8 9 9 10 10 10 10 11 11 10 11 11 10 11 13 14 15 15 14 12 12 9 11 13 16 18 15 14
20 17 14 11 8 6 3 1 2 3 4 5 6 7 7 7 7 8 9 10 10 11 11 11 11 10 10 10 10 9 9 10 10 9 8 6 9 10 16 19 17 17 14
21 18 14 11 8 6 4 1 1 2 3 4 5 6 7 7 8 9 9 10 11 11 11 11 11 11 11 11 11 9 5 2 2 2 5 5 7 12 14 14 14 14 12
20 17 14 12 9 6 4 2 1 2 3 4 5 7 8 8 9 10 11 11 12 12 12 12 12 12 12 10 10 8 6 4 1 5 4 5 6 10 13 15 16 17 15
19 16 13 10 7 6 4 3 2 2 4 6 6 6 7 9 10 11 12 12 13 13 13 12 12 12 11 10 10 8 8 5 3 7 7 7 10 13 17 21 23 23 21
18 16 14 10 7 5 4 1 2 3 5 5 6 6 8 8 9 10 11 11 12 12 12 12 11 11 10 9 9 9 8 5 3 6 8 10 12 15 19 21 18 13 13
19 17 14 11 8 5 3 1 1 2 4 5 5 6 7 7 8 10 11 11 12 13 13 13 13 12 10 8 9 8 8 6 7 6 8 12 14 13 8 2 4 5 6
20 17 14 11 8 6 4 2 1 2 4 4 5 5 6 7 8 10 11 12 13 13 14 14 13 13 11 10 8 7 8 4 6 6 7 8 10 8 6 1 2 3 3
19 17 14 11 9 6 4 1 1 2 4 4 4 5 6 7 9 10 11 11 12 13 14 15 15 14 13 12 7 5 7 3 3 5 6 7 9 11 7 5 4 4 4
18 15 13 11 9 6 4 1 1 3 4 4 4 4 5 7 9 11 11 11 12 12 13 13 13 13 11 10 6 7 5 3 2 4 6 8 9 9 6 4 5 7 7
18 16 13 11 9 6 3 1 0 2 4 4 4 4 5 7 10 10 10 10 11 12 13 14 14 13 12 11 5 5 4 3 2 4 7 9 8 9 7 6 7 8 8
17 15 13 11 8 5 4 2 1 3 4 4 4 4 6 8 9 9 9 10 10 11 13 14 14 14 13 11 3 1 4 7 6 9 11 9 10 10 10 10 10 11 11
16 15 13 11 8 6 5 3 2 3 3 3 4 5 8 9 8 9 9 9 10 11 12 12 13 14 13 13 9 3 3 4 8 9 11 13 14 16 14 13 13 13 13
17 16 14 12 9 7 6 4 4 3 2 3 4 5 7 7 8 9 9 10 10 11 11 12 13 13 12 13 10 5 2 3 5 9 13 13 15 17 18 18 16 14 12
18 16 15 13 10 9 8 6 5 4 4 5 5 5 5 7 8 9 9 10 10 9 10 11 12 11 12 13 11 5 3 2 3 9 6 9 13 14 16 19 20 16 15
21 18 16 13 11 10 9 7 6 6 5 4 4 4 5 7 9 9 10 10 10 10 10 11 11 11 11 10 10 6 3 2 9 4 4 7 12 12 17 21 22 18 16
21 18 16 15 13 12 11 9 8 7 6 5 5 6 7 8 9 10 10 11 12 12 11 11 12 11 12 11 9 9 8 8 4 4 6 9 9 13 17 20 20 20 17
19 17 16 16 15 14 13 11 10 8 6 5 7 7 8 10 12 13 14 14 14 14 13 13 12 13 13 12 12 11 10 9 9 11 15 11 12 17 19 19 17 18 16
16 16 17 18 17 16 15 13 11 9 6 7 8 9 10 12 14 17 18 18 17 16 15 15 14 13 13 13 13 12 12 12 10 11 15 19 19 16 12 17 18 15 15
Wind_Direction
172 169 160 148 136 132 115 103 91 79 70 62 54 48 46 45 47 48 48 47 45 43 46 30 16 12 11 14 16 17 18 15 11 4 352 340 349 356 9 349 341 351 358
172 166 160 148 141 132 124 113 101 89 77 68 58 53 50 47 41 35 31 29 28 23 17 10 2 359 0 358 358 359 360 2 6 5 7 10 8 354 351 351 323 321 332
164 165 156 154 148 138 128 115 104 96 83 73 61 35 13 3 3 359 358 358 355 354 353 349 346 343 340 340 339 341 342 344 346 354 4 17 342 345 341 328 329 312 302
159 163 157 153 151 139 132 125 113 86 44 13 2 355 352 349 347 344 340 336 331 326 321 317 315 316 321 328 328 327 326 325 326 337 343 336 338 331 319 312 321 318 286
164 166 152 153 146 141 140 130 101 31 7 5 4 359 354 349 345 340 337 331 327 324 321 316 309 305 302 300 300 305 311 313 311 318 320 310 332 320 325 316 313 302 294
169 167 158 154 151 148 140 119 63 3 6 6 356 353 351 348 346 346 342 338 336 331 327 321 315 310 304 297 293 290 287 288 294 300 304 294 315 296 306 316 318 305 288
172 170 166 159 158 151 140 120 25 7 356 355 355 356 357 357 355 357 350 349 345 339 334 327 322 316 306 301 297 292 287 283 283 287 291 283 286 283 294 296 305 303 295
176 173 169 162 162 157 146 119 2 357 357 3 4 4 4 6 7 5 1 357 352 347 344 341 337 333 329 316 301 294 289 286 283 284 286 286 270 279 282 281 286 290 288
178 175 170 170 168 163 163 136 357 359 8 14 10 10 9 19 18 6 1 358 354 353 350 348 347 344 336 325 319 316 318 308 296 291 292 292 273 277 277 282 285 286 294
171 171 173 177 169 167 164 152 14 16 21 22 12 6 12 11 14 5 2 1 359 353 351 348 342 336 336 331 325 331 334 355 50 239 277 275 256 267 276 278 278 289 296
165 166 172 176 166 170 166 159 100 36 38 29 15 7 7 10 6 1 4 3 1 355 354 349 342 339 340 340 334 333 319 303 293 268 310 289 277 277 287 286 294 297 301
170 168 171 174 175 176 175 164 137 58 40 30 18 9 3 6 3 1 3 2 0 355 353 350 345 345 346 345 348 345 336 346 276 259 286 273 266 268 279 287 290 293 295
172 173 170 176 179 189 192 140 58 31 30 24 10 8 8 10 4 4 1 359 358 357 354 353 352 355 356 357 1 5 2 9 317 260 280 283 282 278 281 287 292 292 287
175 173 173 175 181 195 196 152 96 35 14 14 12 10 14 11 9 1 357 357 358 359 359 357 360 1 2 1 6 15 18 26 355 333 296 291 287 294 299 10 334 323 335
181 175 174 175 182 188 203 172 40 3 7 8 11 11 9 11 8 1 356 0 3 3 4 5 3 6 3 1 17 22 14 25 343 335 332 319 323 332 318 8 352 319 306
182 178 177 177 182 191 178 186 339 351 356 5 3 4 6 7 5 359 0 6 9 11 12 11 10 11 8 11 26 20 13 351 330 351 349 356 356 348 336 321 333 337 351
183 182 181 182 183 191 185 195 306 345 348 349 349 359 5 1 360 358 4 10 13 15 17 16 15 12 13 22 43 38 22 31 21 14 5 345 338 353 21 360 340 334 328
189 185 186 187 190 197 194 196 272 331 334 330 341 353 356 356 354 0 4 8 14 14 18 16 15 16 18 18 34 46 334 313 287 307 314 324 330 331 332 328 323 318 316
192 192 191 194 199 200 206 206 272 317 316 317 331 349 344 348 352 359 1 5 10 12 14 15 13 13 14 20 18 8 331 341 345 316 319 316 314 316 319 321 320 315 311
195 196 196 201 207 204 201 217 276 289 296 310 323 333 333 340 349 352 353 357 359 5 9 7 9 9 6 11 7 300 287 321 331 343 355 358 351 348 359 357 340 326 321
202 203 203 211 213 212 219 237 265 279 275 302 314 321 329 334 345 344 343 346 347 351 356 356 0 358 357 5 18 34 340 282 303 333 347 351 345 340 348 352 351 342 334
211 208 209 210 218 220 227 246 273 281 291 298 315 330 335 337 343 333 336 341 336 341 340 341 344 348 350 354 6 12 343 281 282 311 323 322 340 332 335 342 347 346 340
215 218 219 219 222 227 233 244 258 257 265 278 307 320 335 336 336 330 329 332 328 328 325 325 329 332 337 344 344 358 332 284 315 240 278 313 321 318 327 334 336 343 341
218 222 226 228 231 230 231 241 249 246 249 280 315 322 327 328 330 326 329 324 320 318 318 316 315 318 322 326 322 319 312 296 302 287 238 290 286 307 315 317 324 336 338
223 227 230 232 232 233 233 237 239 239 251 294 305 301 305 315 320 324 323 321 317 311 308 307 307 309 311 311 307 304 299 289 279 266 286 304 270 296 301 307 317 328 330
224 230 235 237 236 234 230 234 235 238 261 294 298 299 306 314 319 320 315 312 309 309 305 301 300 301 300 299 296 293 290 288 281 272 278 289 296 307 302 302 304 311 322